Location: Bli��� Lhota
(48.7570°N, 14.0120°E)
Time: 05:21:29
(UTC+00:00)

Cosmos 2279 Rocket - Pass Details

Date: 18 September 2020
Orbit: 963 x 979 km, 82.9° (Epoch: 29 October)

Event Time Altitude Azimuth Distance (km) Brightness Sun altitude
Exits shadow 20:20:51 88° 169° (SSE) 987 3.8 -29.4°
Maximum altitude 20:20:56 89° 95° (E) 986 3.9 -29.5°
Drops below altitude 10° 20:27:15 10° 9° (N) 2,743 6.7 -30.2°
Sets 20:29:46 0° 10° (N) 3,695 7.5 -30.5°
